Location: Newark
(48.0000°N, 67.0000°E)
Time: 09:31:18
(UTC+00:00)

A-11 Canister half - Pass Details

Date: 21 February 2020
Orbit: 1516 x 1683 km, 47.2° (Epoch: 06 April)

Event Time Altitude Azimuth Distance (km) Brightness Sun altitude
Rises 14:16:42 0° 264° (W) 4,880 13.7 -13.0°
Reaches altitude 10° 14:19:52 10° 264° (W) 3,874 12.6 -13.6°
Maximum altitude 14:29:47 87° 177° (S) 1,602 9.1 -15.2°
Enters shadow 14:36:44 22° 90° (E) 2,941 9.8 -16.4°
